Time,TemperatureF,DewpointF,PressureIn,WindDirection,WindDirectionDegrees,WindSpeedMPH,WindSpeedGustMPH,Humidity,HourlyPrecipIn,Conditions,Clouds,dailyrainin,SoftwareType,DateUTC
2013-01-31 08:02:00,10.0,5.0,-100.00,WNW,301,16.0,25.0,79,0.00,,,0.05,,2013-01-31 14:02:00,
2013-01-31 08:11:00,10.0,5.0,-100.00,WNW,301,16.0,25.0,79,0.00,,,0.05,,2013-01-31 14:11:00,
2013-01-31 08:22:00,10.0,5.0,-100.00,WNW,301,16.0,25.0,79,0.00,,,0.05,,2013-01-31 14:22:00,
2013-01-31 08:52:00,10.0,5.0,-100.00,WNW,295,14.0,24.0,81,0.00,,,-99.99,,2013-01-31 14:52:00,
2013-01-31 09:03:00,10.0,5.0,-100.00,WNW,295,14.0,24.0,81,0.00,,,-99.99,,2013-01-31 15:03:00,
2013-01-31 09:12:00,10.0,5.0,-100.00,WNW,295,14.0,24.0,81,0.00,,,-99.99,,2013-01-31 15:12:00,
2013-01-31 09:22:00,10.0,5.0,-100.00,WNW,295,14.0,24.0,81,0.00,,,-99.99,,2013-01-31 15:22:00,
2013-01-31 09:52:00,10.0,3.0,-100.00,WNW,301,16.0,24.0,74,0.00,,,0.04,,2013-01-31 15:52:00,
2013-01-31 10:03:00,10.0,3.0,-100.00,WNW,301,16.0,24.0,74,0.00,,,0.04,,2013-01-31 16:03:00,
2013-01-31 10:12:00,10.0,3.0,-100.00,WNW,301,16.0,24.0,74,0.00,,,0.04,,2013-01-31 16:12:00,
2013-01-31 10:22:00,10.0,3.0,-100.00,WNW,301,16.0,24.0,74,0.00,,,0.04,,2013-01-31 16:22:00,
2013-01-31 10:52:00,10.0,2.0,-100.00,NW,313,15.0,26.0,69,0.00,,,0.02,,2013-01-31 16:52:00,
2013-01-31 11:02:00,10.0,2.0,-100.00,NW,313,15.0,26.0,69,0.00,,,0.02,,2013-01-31 17:02:00,
2013-01-31 11:12:00,10.0,2.0,-100.00,NW,313,15.0,26.0,69,0.00,,,0.02,,2013-01-31 17:12:00,
2013-01-31 11:23:00,10.0,2.0,-100.00,NW,313,15.0,26.0,69,0.00,,,0.02,,2013-01-31 17:23:00,
2013-01-31 11:53:00,11.0,2.0,-100.00,NW,305,15.0,24.0,65,0.00,,,0.00,,2013-01-31 17:53:00,
2013-01-31 12:03:00,11.0,2.0,-100.00,NW,305,15.0,24.0,65,0.00,,,0.00,,2013-01-31 18:03:00,
2013-01-31 12:12:00,11.0,2.0,-100.00,NW,305,15.0,24.0,65,0.00,,,0.00,,2013-01-31 18:12:00,
2013-01-31 12:22:00,11.0,2.0,-100.00,NW,305,15.0,24.0,65,0.00,,,0.00,,2013-01-31 18:22:00,
2013-01-31 12:52:00,12.0,3.0,-100.00,WNW,294,17.0,26.0,67,0.00,,,0.00,,2013-01-31 18:52:00,
2013-01-31 13:02:00,12.0,3.0,-100.00,WNW,294,17.0,26.0,67,0.00,,,0.00,,2013-01-31 19:02:00,
2013-01-31 13:12:00,12.0,3.0,-100.00,WNW,294,17.0,26.0,67,0.00,,,0.00,,2013-01-31 19:12:00,
2013-01-31 13:22:00,12.0,3.0,-100.00,WNW,294,17.0,26.0,67,0.00,,,0.00,,2013-01-31 19:22:00,
2013-01-31 13:52:00,11.0,2.0,-100.00,WNW,297,16.0,25.0,66,0.00,,,0.00,,2013-01-31 19:52:00,
2013-01-31 14:02:00,11.0,2.0,-100.00,WNW,297,16.0,25.0,66,0.00,,,0.00,,2013-01-31 20:02:00,
2013-01-31 14:11:00,11.0,2.0,-100.00,WNW,297,16.0,25.0,66,0.00,,,0.00,,2013-01-31 20:11:00,
2013-01-31 14:22:00,11.0,2.0,-100.00,WNW,297,16.0,25.0,66,0.00,,,0.00,,2013-01-31 20:22:00,
2013-01-31 14:52:00,11.0,1.0,-100.00,WNW,296,17.0,22.0,63,0.00,,,0.00,,2013-01-31 20:52:00,
2013-01-31 15:02:00,11.0,1.0,-100.00,WNW,296,17.0,22.0,63,0.00,,,0.00,,2013-01-31 21:02:00,
2013-01-31 15:12:00,11.0,1.0,-100.00,WNW,296,17.0,22.0,63,0.00,,,0.00,,2013-01-31 21:12:00,
2013-01-31 15:22:00,11.0,1.0,-100.00,WNW,296,17.0,22.0,63,0.00,,,0.00,,2013-01-31 21:22:00,
2013-01-31 15:52:00,10.0,3.0,-100.00,WNW,294,15.0,25.0,73,0.00,,,0.00,,2013-01-31 21:52:00,
2013-01-31 16:03:00,10.0,3.0,-100.00,WNW,294,15.0,25.0,73,0.00,,,0.00,,2013-01-31 22:03:00,
2013-01-31 16:11:00,10.0,3.0,-100.00,WNW,294,15.0,25.0,73,0.00,,,0.00,,2013-01-31 22:11:00,
2013-01-31 16:22:00,10.0,3.0,-100.00,WNW,294,15.0,25.0,73,0.00,,,0.00,,2013-01-31 22:22:00,
2013-01-31 16:52:00,9.0,1.0,-100.00,WNW,303,15.0,25.0,68,0.00,,,0.00,,2013-01-31 22:52:00,
2013-01-31 17:02:00,9.0,1.0,-100.00,WNW,303,15.0,25.0,68,0.00,,,0.00,,2013-01-31 23:02:00,
2013-01-31 17:12:00,9.0,1.0,-100.00,WNW,303,15.0,25.0,68,0.00,,,0.00,,2013-01-31 23:12:00,
2013-01-31 17:22:00,9.0,1.0,-100.00,WNW,303,15.0,25.0,68,0.00,,,0.00,,2013-01-31 23:22:00,
2013-01-31 17:52:00,7.0,1.0,-100.00,NW,305,15.0,25.0,75,0.00,,,0.00,,2013-01-31 23:52:00,
2013-01-31 18:01:00,7.0,1.0,-100.00,NW,305,15.0,25.0,75,0.00,,,0.00,,2013-02-01 00:01:00,
2013-01-31 18:11:00,7.0,1.0,-100.00,NW,305,15.0,25.0,75,0.00,,,0.00,,2013-02-01 00:11:00,
2013-01-31 18:22:00,7.0,1.0,-100.00,NW,305,15.0,25.0,75,0.00,,,0.00,,2013-02-01 00:22:00,
2013-01-31 18:52:00,6.0,-1.0,-100.00,NW,307,16.0,25.0,71,0.00,,,0.00,,2013-02-01 00:52:00,
2013-01-31 19:01:00,6.0,-1.0,-100.00,NW,307,16.0,25.0,71,0.00,,,0.00,,2013-02-01 01:01:00,
2013-01-31 19:11:00,6.0,-1.0,-100.00,NW,307,16.0,25.0,71,0.00,,,0.00,,2013-02-01 01:11:00,
2013-01-31 19:21:00,6.0,-1.0,-100.00,NW,307,16.0,25.0,71,0.00,,,0.00,,2013-02-01 01:21:00,
2013-01-31 19:52:00,5.0,-1.0,-100.00,WNW,302,16.0,26.0,74,0.00,,,0.00,,2013-02-01 01:52:00,
2013-01-31 20:02:00,5.0,-1.0,-100.00,WNW,302,16.0,26.0,74,0.00,,,0.00,,2013-02-01 02:02:00,
2013-01-31 20:11:00,5.0,-1.0,-100.00,WNW,302,16.0,26.0,74,0.00,,,0.00,,2013-02-01 02:11:00,
2013-01-31 20:21:00,5.0,-1.0,-100.00,WNW,302,16.0,26.0,74,0.00,,,0.00,,2013-02-01 02:21:00,
2013-01-31 20:52:00,4.0,-3.0,-100.00,NW,307,16.0,26.0,73,0.00,,,-99.99,,2013-02-01 02:52:00,
2013-01-31 21:02:00,4.0,-3.0,-100.00,NW,307,16.0,26.0,73,0.00,,,-99.99,,2013-02-01 03:02:00,
2013-01-31 21:12:00,4.0,-3.0,-100.00,NW,307,16.0,26.0,73,0.00,,,-99.99,,2013-02-01 03:12:00,
2013-01-31 21:21:00,4.0,-3.0,-100.00,NW,307,16.0,26.0,73,0.00,,,-99.99,,2013-02-01 03:21:00,
2013-01-31 21:52:00,2.0,-5.0,-100.00,NW,309,16.0,26.0,72,0.00,,,0.00,,2013-02-01 03:52:00,
2013-01-31 22:02:00,2.0,-5.0,-100.00,NW,309,16.0,26.0,72,0.00,,,0.00,,2013-02-01 04:02:00,
2013-01-31 22:11:00,2.0,-5.0,-100.00,NW,309,16.0,26.0,72,0.00,,,0.00,,2013-02-01 04:11:00,
2013-01-31 22:21:00,2.0,-5.0,-100.00,NW,309,16.0,26.0,72,0.00,,,0.00,,2013-02-01 04:21:00,
2013-01-31 22:52:00,1.0,-6.0,-100.00,NW,305,12.0,23.0,72,0.00,,,0.00,,2013-02-01 04:52:00,
2013-01-31 23:03:00,1.0,-6.0,-100.00,NW,305,12.0,23.0,72,0.00,,,0.00,,2013-02-01 05:03:00,
2013-01-31 23:12:00,1.0,-6.0,-100.00,NW,305,12.0,23.0,72,0.00,,,0.00,,2013-02-01 05:12:00,
2013-01-31 23:22:00,1.0,-6.0,-100.00,NW,305,12.0,23.0,72,0.00,,,0.00,,2013-02-01 05:22:00,
2013-01-31 23:52:00,0.0,-7.0,-100.00,NW,311,9.0,18.0,72,0.00,,,0.00,,2013-02-01 05:52:00,